Weather in Pechetovo

Russia / Tver Oblast     57°08′16″N   37°00′10″E
temp.,
°C
wind,
m/s
gust,
m/s
humid.,
%
clouds,
%
prec.,
mm/h
press.,
hPa
HPBL,
m
13 april, tue
tue1300:00+9se3108192 0.0 1027389
03:00+7ese399398 0.0 1026227
06:00+6ese299798 0.0 1025213
09:00+11sse487775 0.0 1024376
12:00+17s4856100 0.0 1023758
15:00+19s4851100 0.0 10221345
18:00+17sse4956100 0.0 1021352
21:00+12sse3127157 0.0 1022229
14 april, wed
wed1400:00+10sse3127391 0.0 1021232
03:00+9sse311765 0.0 1020237
06:00+7sse298074 0.0 1020171
09:00+13s476098 0.0 1019348
12:00+17s474984 0.0 1019829
15:00+19s4744100 0.0 10172004
18:00+17sse4850100 0.0 1017362
21:00+13sse2862100 0.0 1018165
15 april, thu
thu1500:00+9sw116978 0.0 101810
03:00+9e1171100 0.0 101810
06:00+7ne3682100 0.0 1019138
09:00+9ne3586100 0.0 1019316
12:00+13ne4566100 0.0 1019623
15:00+14ne5666100 0.0 1019933
18:00+10nne51079100 0.0 1020477
21:00+7ne51185100 0.0 1021432
16 april, fri
fri1600:00+6ne51286100 0.0 1022472
03:00+5ne5128669 0.0 1023476
06:00+4ne5129133 0.0 1023440
09:00+6ne597542 0.0 1024556
12:00+10ne685261 0.0 1024877
15:00+12ne684458 0.0 10251196
18:00+10ne594657 0.0 1026945
21:00+6ne4126299 0.0 1028388
17 april, sat
sat1700:00+4ne4126829 0.0 1029381
03:00+3ne4117447 0.0 1030292
06:00+2ne411760 0.0 1031299
09:00+6ne510570 0.0 1032632
12:00+9ene57475 0.0 10321411
15:00+10ne57445 0.0 10321647
18:00+9ne47474 0.0 10321077
21:00+4ne386654 0.0 1034185